EN

Hourly Weather Abdulmambetovo

Today, 27 November, Friday

Time Temperature Precipitation Wind Pressure Humidity
00:00 -8°C° 0.1 mm 1 mps 730 mmHg 94%
01:00 -8°C° 0.1 mm 1 mps 730 mmHg 94%
02:00 -8°C° 0.2 mm 1 mps 730 mmHg 94%
03:00 -8°C° 0.2 mm 1 mps 730 mmHg 93%
04:00 -8°C° 0 mm 1 mps 731 mmHg 93%
05:00 -8°C° 0.3 mm 1 mps 731 mmHg 93%
06:00 -8°C° 0.3 mm 1 mps 730 mmHg 93%
07:00 -8°C° 0.3 mm 1 mps 730 mmHg 93%
08:00 -8°C° 0.2 mm 1 mps 731 mmHg 92%
09:00 -8°C° 0.2 mm 1 mps 731 mmHg 91%
10:00 -8°C° 0.2 mm 1 mps 731 mmHg 90%
11:00 -7°C° 0.1 mm 1 mps 731 mmHg 89%
12:00 -7°C° 0.1 mm 1 mps 731 mmHg 89%
13:00 -7°C° 0.1 mm 1 mps 731 mmHg 88%
14:00 -7°C° 0.1 mm 1 mps 731 mmHg 90%
15:00 -7°C° 0.1 mm 1 mps 731 mmHg 93%
16:00 -8°C° 0.1 mm 1 mps 731 mmHg 95%
17:00 -8°C° 0.1 mm 0 mps 732 mmHg 95%
18:00 -8°C° 0.1 mm 0 mps 732 mmHg 95%
19:00 -8°C° 0.1 mm 0 mps 732 mmHg 96%
20:00 -8°C° 0.1 mm 0 mps 733 mmHg 96%
21:00 -8°C° 0.1 mm 0 mps 733 mmHg 96%
22:00 -8°C° 0.1 mm 0 mps 733 mmHg 96%
23:00 -8°C° 0 mm 0 mps 734 mmHg 95%

Tomorrow, 28 November, Saturday

Time Temperature Precipitation Wind Pressure Humidity
00:00 -8°C° 0 mm 0 mps 734 mmHg 95%
01:00 -9°C° 0 mm 0 mps 734 mmHg 95%
02:00 -9°C° 0 mm 0 mps 735 mmHg 94%
03:00 -9°C° 0 mm 0 mps 735 mmHg 94%
04:00 -9°C° 0 mm 0 mps 736 mmHg 94%
05:00 -9°C° 0 mm 0 mps 736 mmHg 94%
06:00 -10°C° 0 mm 0 mps 736 mmHg 94%
07:00 -10°C° 0 mm 0 mps 737 mmHg 94%
08:00 -10°C° 0 mm 0 mps 737 mmHg 93%
09:00 -9°C° 0 mm 0 mps 738 mmHg 91%
10:00 -8°C° 0 mm 0 mps 739 mmHg 90%
11:00 -8°C° 0 mm 0 mps 739 mmHg 88%
12:00 -7°C° 0 mm 0 mps 740 mmHg 86%
13:00 -6°C° 0 mm 0 mps 740 mmHg 83%
14:00 -7°C° 0 mm 0 mps 740 mmHg 86%
15:00 -8°C° 0 mm 0 mps 741 mmHg 89%
16:00 -9°C° 0 mm 0 mps 741 mmHg 92%
17:00 -10°C° 0 mm 0 mps 741 mmHg 92%
18:00 -10°C° 0 mm 0 mps 742 mmHg 92%
19:00 -10°C° 0 mm 0 mps 742 mmHg 92%
20:00 -10°C° 0 mm 0 mps 743 mmHg 92%
21:00 -10°C° 0 mm 0 mps 743 mmHg 91%
22:00 -10°C° 0 mm 0 mps 744 mmHg 91%
23:00 -11°C° 0 mm 0 mps 744 mmHg 91%

Day after tomorrow, 29 November, Sunday

Time Temperature Precipitation Wind Pressure Humidity
00:00 -11°C° 0 mm 0 mps 744 mmHg 92%
01:00 -11°C° 0 mm 0 mps 744 mmHg 92%
02:00 -11°C° 0 mm 0 mps 745 mmHg 92%
03:00 -11°C° 0 mm 0 mps 745 mmHg 92%
04:00 -11°C° 0 mm 0 mps 746 mmHg 92%
05:00 -11°C° 0 mm 0 mps 746 mmHg 92%
06:00 -11°C° 0 mm 0 mps 746 mmHg 92%
07:00 -11°C° 0 mm 0 mps 746 mmHg 91%
08:00 -10°C° 0 mm 0 mps 747 mmHg 90%
09:00 -10°C° 0 mm 0 mps 747 mmHg 90%
10:00 -9°C° 0 mm 0 mps 748 mmHg 89%
11:00 -8°C° 0 mm 0 mps 748 mmHg 87%
12:00 -8°C° 0 mm 0 mps 748 mmHg 85%
13:00 -7°C° 0 mm 0 mps 748 mmHg 84%
14:00 -8°C° 0 mm 0 mps 748 mmHg 86%
15:00 -9°C° 0 mm 0 mps 748 mmHg 89%
16:00 -10°C° 0 mm 0 mps 748 mmHg 92%
17:00 -10°C° 0 mm 0 mps 748 mmHg 92%
18:00 -11°C° 0 mm 0 mps 749 mmHg 91%
19:00 -11°C° 0 mm 0 mps 749 mmHg 91%
20:00 -11°C° 0 mm 0 mps 749 mmHg 91%
21:00 -11°C° 0 mm 0 mps 749 mmHg 91%
22:00 -11°C° 0 mm 0 mps 749 mmHg 91%
23:00 -11°C° 0 mm 0 mps 749 mmHg 90%

30 November, Monday

Time Temperature Precipitation Wind Pressure Humidity
00:00 -11°C° 0 mm 0 mps 749 mmHg 90%
01:00 -11°C° 0 mm 0 mps 749 mmHg 89%
02:00 -12°C° 0 mm 0 mps 749 mmHg 89%
03:00 -12°C° 0 mm 0 mps 749 mmHg 89%
04:00 -12°C° 0 mm 0 mps 750 mmHg 89%
05:00 -12°C° 0 mm 0 mps 750 mmHg 88%
06:00 -12°C° 0 mm 0 mps 750 mmHg 87%
07:00 -12°C° 0 mm 0 mps 749 mmHg 86%
08:00 -11°C° 0 mm 0 mps 750 mmHg 85%
09:00 -10°C° 0 mm 0 mps 750 mmHg 84%
10:00 -9°C° 0 mm 0 mps 750 mmHg 83%
11:00 -8°C° 0 mm 0 mps 750 mmHg 81%
12:00 -8°C° 0 mm 0 mps 750 mmHg 79%
13:00 -7°C° 0 mm 0 mps 750 mmHg 77%
14:00 -8°C° 0 mm 0 mps 749 mmHg 80%
15:00 -9°C° 0 mm 0 mps 749 mmHg 82%
16:00 -10°C° 0 mm 0 mps 749 mmHg 84%
17:00 -11°C° 0 mm 1 mps 749 mmHg 84%
18:00 -11°C° 0 mm 1 mps 749 mmHg 83%
19:00 -11°C° 0 mm 1 mps 749 mmHg 82%
20:00 -11°C° 0 mm 1 mps 749 mmHg 83%
21:00 -11°C° 0 mm 1 mps 749 mmHg 83%
22:00 -11°C° 0 mm 1 mps 749 mmHg 83%
23:00 -12°C° 0 mm 1 mps 749 mmHg 84%

1 December, Tuesday

Time Temperature Precipitation Wind Pressure Humidity
00:00 -12°C° 0 mm 1 mps 749 mmHg 85%
01:00 -12°C° 0 mm 1 mps 749 mmHg 86%
02:00 -12°C° 0 mm 1 mps 748 mmHg 87%
03:00 -12°C° 0 mm 1 mps 748 mmHg 87%
04:00 -13°C° 0 mm 1 mps 748 mmHg 88%
05:00 -13°C° 0 mm 1 mps 748 mmHg 88%
06:00 -13°C° 0 mm 1 mps 748 mmHg 89%
07:00 -13°C° 0 mm 1 mps 748 mmHg 89%
08:00 -13°C° 0 mm 1 mps 748 mmHg 88%
09:00 -12°C° 0 mm 1 mps 748 mmHg 88%
10:00 -11°C° 0 mm 1 mps 748 mmHg 87%
11:00 -11°C° 0 mm 1 mps 748 mmHg 86%
12:00 -11°C° 0 mm 1 mps 747 mmHg 84%
13:00 -10°C° 0 mm 1 mps 747 mmHg 82%
14:00 -11°C° 0 mm 1 mps 747 mmHg 85%
15:00 -12°C° 0 mm 1 mps 747 mmHg 88%
16:00 -13°C° 0 mm 1 mps 747 mmHg 91%
17:00 -13°C° 0 mm 1 mps 747 mmHg 92%
18:00 -14°C° 0 mm 1 mps 747 mmHg 93%
19:00 -14°C° 0 mm 1 mps 747 mmHg 93%
20:00 -14°C° 0 mm 1 mps 747 mmHg 93%
21:00 -15°C° 0 mm 1 mps 747 mmHg 94%
22:00 -17°C° 0 mm 2 mps 746 mmHg 94%
23:00 -17°C° 0 mm 2 mps 746 mmHg 94%

2 December, Wednesday

Time Temperature Precipitation Wind Pressure Humidity
00:00 -17°C° 0 mm 2 mps 746 mmHg 94%
01:00 -18°C° 0 mm 2 mps 746 mmHg 94%
02:00 -18°C° 0 mm 2 mps 746 mmHg 94%
03:00 -18°C° 0 mm 2 mps 746 mmHg 94%
04:00 -18°C° 0 mm 2 mps 746 mmHg 95%
05:00 -18°C° 0 mm 2 mps 746 mmHg 95%
06:00 -18°C° 0 mm 2 mps 746 mmHg 95%
07:00 -18°C° 0 mm 2 mps 746 mmHg 95%
08:00 -17°C° 0 mm 2 mps 746 mmHg 94%
09:00 -17°C° 0 mm 2 mps 746 mmHg 93%
10:00 -16°C° 0 mm 2 mps 745 mmHg 93%
11:00 -16°C° 0 mm 2 mps 745 mmHg 91%
12:00 -15°C° 0 mm 2 mps 745 mmHg 89%
13:00 -15°C° 0 mm 3 mps 745 mmHg 87%
14:00 -16°C° 0 mm 3 mps 744 mmHg 89%
15:00 -16°C° 0 mm 3 mps 744 mmHg 91%
16:00 -16°C° 0 mm 2 mps 744 mmHg 93%
17:00 -16°C° 0 mm 2 mps 744 mmHg 93%
18:00 -16°C° 0 mm 2 mps 744 mmHg 94%
19:00 -16°C° 0 mm 2 mps 744 mmHg 94%
20:00 -18°C° 0 mm 3 mps 744 mmHg 94%
21:00 -18°C° 0 mm 3 mps 744 mmHg 94%
22:00 -18°C° 0 mm 3 mps 743 mmHg 94%
23:00 -18°C° 0 mm 3 mps 743 mmHg 94%
Show more